Regional Weather Roundup
Issued by NWS

Home | Current Version | Previous Version | Text Only | Print | Product List | Glossary Off
Versions: 1 2 3 4 5 6 7 8 9 10 11 12 13 14 15 16 17 18 19 20 21 22 23 24 25 26 27 28 29 30 31 32 33 34 35 36 37 38 39 40 41 42 43 44 45 46 47 48 49 50

434
ASUS45 KCYS 230010
RWRWY

WYOMING REGIONAL WEATHER ROUNDUP
NATIONAL WEATHER SERVICE CHEYENNE WY
500 PM MST MON JAN 22 2018

NOTE:  "FAIR" INDICATES FEW OR NO CLOUDS BELOW 12,000 FEET
WITH NO SIGNIFICANT WEATHER AND/OR OBSTRUCTIONS TO VISIBILITY.

WYZ001-230100-
YELLOWSTONE NATIONAL PARK

CITY           SKY/WX    TMP DP  RH WIND       PRES   REMARKS
LK YELLOWSTONE   N/A     16  12  84 CALM      30.11R
6HR MIN TEMP:   9; 6HR MAX TEMP:  19; 6HR PCP:  0.05;

W YELLOWSTONE  NOT AVBL

$$
WYZ002>013-054>058-071-098>099-230100-
NORTHERN WYOMING

CITY           SKY/WX    TMP DP  RH WIND       PRES   REMARKS
JACKSON        LGT SNOW  16  10  79 CALM      30.16S VSB 3/4
CODY           FAIR      21  16  81 NE8       30.06R WCI  11
GREYBULL       FAIR      23  16  74 SE5       30.11R WCI  17
6HR MIN TEMP:  13; 6HR MAX TEMP:  24;

WORLAND        FAIR      18  14  84 CALM      30.09S
6HR MIN TEMP:  12; 6HR MAX TEMP:  21;

SHERIDAN       MOCLDY    31  23  72 SW3       30.05R
6HR MIN TEMP:  25; 6HR MAX TEMP:  36;

BUFFALO        FAIR      31  16  54 N7        30.05R WCI  24
6HR MIN TEMP:  31; 6HR MAX TEMP:  40;

GILLETTE       FAIR      24  17  74 W3        30.03R
6HR MIN TEMP:  24; 6HR MAX TEMP:  31;

HULETT         FAIR      32  16  51 CALM      30.04R
NEWCASTLE      FAIR      27  16  63 N6        30.03S WCI  20

$$
WYZ014>020-022>026-101>103-230100-
CENTRAL WYOMING

CITY           SKY/WX    TMP DP  RH WIND       PRES   REMARKS
BIG PINEY      CLOUDY    22  12  65 SE5       30.14R WCI  16
6HR MIN TEMP:  14; 6HR MAX TEMP:  24;

PINEDALE       CLOUDY    23  12  63 CALM      30.14S
DUBOIS         CLOUDY    25  14  63 N14       30.05R WCI  13
LANDER         CLOUDY    11   6  81 CALM      30.08R
6HR MIN TEMP:  10; 6HR MAX TEMP:  14;

RIVERTON       FAIR      13   5  70 CALM      30.09R
6HR MIN TEMP:   4; 6HR MAX TEMP:  16;

CASPER         MOCLDY    23  15  71 SW16      30.08S WCI  10
6HR MIN TEMP:  17; 6HR MAX TEMP:  23;

DOUGLAS        FAIR      23  14  68 N7        30.06R WCI  15
6HR MIN TEMP:  22; 6HR MAX TEMP:  30;


$$
WYZ021-027>030-104>119-230100-
SOUTHERN WYOMING

CITY           SKY/WX    TMP DP  RH WIND       PRES   REMARKS
EVANSTON       FAIR      21  15  78 SW20      30.17S WCI   6
6HR MIN TEMP:  15; 6HR MAX TEMP:  23; 6HR PCP: TRACE;

FORT BRIDGER   FAIR      23  17  77 W14G20    30.19S WCI  10
ROCK SPRINGS   CLOUDY    20  16  84 SW16      30.15S WCI   6
6HR MIN TEMP:  16; 6HR MAX TEMP:  21; 6HR PCP: TRACE;

DIXON            N/A     23  11  59 SW8       30.23R WCI  14
RAWLINS        MOCLDY    20  13  74 SW15G26   30.12S WCI   6
6HR MIN TEMP:  19; 6HR MAX TEMP:  23;

SARATOGA       CLOUDY    19  10  68 S6        30.14S WCI  11
LARAMIE        FAIR      17   7  64 W14       30.04R WCI   3
6HR MIN TEMP:  15; 6HR MAX TEMP:  21;

CHEYENNE       FAIR      26  10  50 N7        30.04R WCI  18
6HR MIN TEMP:  26; 6HR MAX TEMP:  30;

TORRINGTON     FAIR      28  17  63 W12       30.05R WCI  18
6HR MIN TEMP:  20; 6HR MAX TEMP:  31;


$$




USA.gov is the U.S. government's official web portal to all federal, state and local government web resources and services.